{"data":{"norad_id":67513,"epoch":"2026-09-19T10:46:27.113952Z","epoch_age_seconds":162942,"freshness":"FRESH","line1":"1 67513U 26012W   26262.44892493  .00005216  00000+0  19890-3 0  9997","line2":"2 67513  42.9997 300.2506 0001624 285.9839  74.0833 15.27584704 37397","mean_motion":15.27584704,"eccentricity":0.0001624,"inclination_deg":42.9997,"raan_deg":300.2506,"arg_perigee_deg":285.9839,"mean_anomaly_deg":74.0833,"bstar":0.0001989,"rev_number":3739,"period_min":94.266458431362,"perigee_km":481.92075627302,"apogee_km":484.14926494207,"semimajor_km":6861.1720106075,"source":"CELESTRAK","updated_at":"2026-09-20T09:00:43.562063Z"}}